Lid_Strength_Index
4 6 8 7 6 6 7 8 9 8 7 9 9 9 7 6 6 6 5 5 4 4 2 2 1 1 1 0 0 0 0 -0 -0 0 1 0 1 0 -0 -1 -2 -2 -1 -1
6 7 5 5 6 7 7 8 8 8 8 8 9 9 7 6 6 6 5 5 4 4 3 2 2 1 1 1 0 0 0 -0 -0 -0 -1 -1 -0 -0 -1 -1 -1 -2 -2 -2
7 6 5 6 7 7 7 8 8 8 8 8 9 10 8 6 6 5 5 4 4 4 4 3 2 2 1 1 1 0 0 -0 -0 -1 -1 -0 -1 -1 -0 -0 -0 -1 -1 -1
6 5 6 6 7 6 8 6 8 8 10 11 8 13 9 7 7 6 5 5 5 4 3 3 3 2 2 1 0 0 -0 -0 -0 -1 -0 -0 1 1 0 -0 -1 -1 -1 -1
7 6 6 7 7 7 8 6 7 8 9 10 10 11 9 8 8 7 6 5 4 4 3 3 3 2 1 1 1 0 -0 -0 -1 -0 -1 -0 0 0 -0 -0 -0 -1 -1 -1
6 5 6 6 5 6 6 7 8 8 9 12 10 10 9 8 7 7 5 5 4 4 3 3 2 2 1 1 1 0 0 0 -0 -0 -0 -0 -0 0 1 0 1 0 -0 -1
7 7 6 6 7 7 6 7 11 12 13 11 9 10 9 6 6 6 6 5 4 3 3 3 3 3 2 2 1 1 1 1 0 0 -0 -0 -0 -0 -0 0 0 -0 0 0
9 10 7 5 8 7 7 7 10 14 12 11 9 11 8 5 5 5 5 4 4 4 3 3 3 2 2 2 1 1 1 1 0 0 0 -0 -1 0 0 -0 -0 0 0 -0
8 9 6 5 5 5 7 8 6 9 8 10 9 8 6 5 6 5 5 5 4 4 3 3 2 2 2 2 1 1 1 1 0 0 0 -0 -0 -0 -0 -1 -1 -0 -1 -1
7 9 6 5 5 5 6 5 9 8 12 13 10 10 9 7 7 6 6 5 5 4 3 3 2 2 2 2 2 1 1 2 0 0 0 0 -0 -0 -0 -0 -0 -1 -1 -1
6 7 8 6 7 7 7 8 7 7 9 11 12 11 6 6 6 6 5 5 4 4 4 3 2 2 1 1 2 1 1 1 1 0 0 -0 0 -0 -0 -0 -0 -0 -1 -1
5 7 9 8 5 5 6 7 7 10 10 9 9 10 5 5 5 5 5 5 4 4 3 3 2 2 2 2 1 1 1 1 1 0 0 0 -0 -0 0 0 -0 -1 -0 -1
6 8 10 9 7 6 7 6 6 7 7 9 10 10 6 5 5 5 5 5 4 4 3 3 3 3 2 2 2 2 2 1 0 0 0 0 0 0 0 -0 -0 -1 -1 -1
5 7 8 10 8 7 8 7 6 7 9 9 9 8 6 6 6 5 5 4 4 4 4 3 3 3 2 2 2 1 1 1 1 1 0 1 1 1 0 -0 -0 -0 -1 -0
6 8 7 7 7 7 7 7 7 8 7 9 8 7 6 5 5 5 5 4 5 4 4 4 3 3 2 2 2 1 1 1 0 1 1 1 0 -0 -0 0 -0 -0 -0 -0
5 8 7 9 7 7 8 7 7 7 7 7 7 7 4 4 4 5 5 5 5 5 4 3 3 3 3 2 2 2 1 1 0 1 1 0 0 0 0 0 0 0 0 -0
8 8 8 10 7 8 10 7 7 7 6 6 8 6 4 6 6 6 5 4 4 4 4 3 3 3 2 2 2 2 1 1 1 1 1 1 0 1 0 0 1 1 1 -0
8 8 8 10 9 14 7 5 6 6 6 5 5 5 5 4 4 4 4 4 4 3 3 3 2 2 2 1 1 1 1 1 1 1 1 1 1 1 0 0 1 0 0 0
6 8 10 11 11 9 8 6 7 8 7 5 5 4 5 5 4 5 3 3 3 3 3 2 2 1 1 1 1 1 1 1 1 1 1 1 1 1 1 1 1 0 0 0
6 7 10 10 12 13 8 6 5 5 10 5 5 5 5 5 7 6 3 3 2 2 2 2 2 2 1 1 1 1 2 1 2 1 1 0 0 0 1 0 0 -0 0 0
10 10 13 11 12 9 6 5 4 11 9 5 5 5 4 6 4 3 3 3 2 2 2 2 2 2 1 1 1 2 1 1 0 0 0 0 -0 0 -0 -0 -0 0 0 0
12 13 12 11 13 13 5 5 8 5 5 5 5 5 5 4 4 3 3 3 3 3 2 2 2 2 1 1 1 1 1 0 0 0 0 0 0 0 0 0 0 0 0 1
12 10 12 11 10 6 5 6 5 5 5 5 5 4 4 4 4 3 3 3 3 2 2 2 2 2 1 1 1 1 1 0 0 1 1 0 0 0 0 0 1 1 1 1
8 7 10 9 7 7 6 5 4 4 4 4 4 4 3 4 3 3 3 3 3 3 2 2 2 2 2 1 1 1 1 0 1 1 1 1 1 1 0 1 1 1 1 1
8 7 9 9 7 6 5 4 4 4 3 4 4 4 4 3 3 3 3 3 3 2 2 2 2 2 2 1 1 0 0 0 1 1 1 1 1 1 1 1 1 1 -0 1
6 8 10 11 7 7 6 4 3 4 4 3 4 4 3 3 3 3 3 3 3 3 2 2 2 2 2 1 1 0 0 0 1 1 1 1 1 1 1 1 1 8 8 8